This is the latest recevied weather packets stored in our database for station/object K7AEL. If no packets are shown the sender has not sent any weather packets the latest 10 day(s).
| Time | Temp. | Humidity | Pressure | Rain* | Wind** | Luminosity | Snow |
|---|---|---|---|---|---|---|---|
| 1777564094 | 22.78° C | 24% | 1012.7 hPa | 0 mm | - | 362 W/m² | - |
| 1777563790 | 22.22° C | 24% | 1012.7 hPa | 0 mm | - | 272 W/m² | - |
| 1777563487 | 22.22° C | 25% | 1012.7 hPa | 0 mm | - | 130 W/m² | - |
| 1777563186 | 22.22° C | 23% | 1012.7 hPa | 0 mm | - | 156 W/m² | - |
| 1777562883 | 21.67° C | 26% | 1012.6 hPa | 0 mm | - | 120 W/m² | - |
| 1777562579 | 21.67° C | 25% | 1012.6 hPa | 0 mm | - | 125 W/m² | - |
| 1777562277 | 21.67° C | 24% | 1012.7 hPa | 0 mm | - | 183 W/m² | - |
| 1777561974 | 21.11° C | 26% | 1012.6 hPa | 0 mm | - | 219 W/m² | - |
| 1777561672 | 20.56° C | 25% | 1012.6 hPa | 0 mm | - | 164 W/m² | - |
| 1777561367 | 20.56° C | 26% | 1012.8 hPa | 0 mm | - | 171 W/m² | - |
| 1777561062 | 20° C | 26% | 1012.8 hPa | 0 mm | - | 113 W/m² | - |
| 1777560758 | 20° C | 26% | 1012.9 hPa | 0 mm | - | 120 W/m² | - |
| 1777560455 | 20° C | 27% | 1013 hPa | 0 mm | - | 115 W/m² | - |
| 1777560153 | 19.44° C | 27% | 1013 hPa | 0 mm | - | 115 W/m² | - |
| 1777559849 | 19.44° C | 28% | 1013.3 hPa | 0 mm | - | 108 W/m² | - |
| 1777559545 | 18.89° C | 28% | 1013.2 hPa | 0 mm | - | 103 W/m² | - |
| 1777559243 | 18.89° C | 27% | 1013.2 hPa | 0 mm | - | 97 W/m² | - |
| 1777558938 | 18.33° C | 27% | 1013.2 hPa | 0 mm | - | 89 W/m² | - |
| 1777558634 | 18.33° C | 28% | 1013 hPa | 0 mm | - | 81 W/m² | - |
| 1777558329 | 17.78° C | 29% | 1013.2 hPa | 0 mm | - | 79 W/m² | - |
| 1777558027 | 17.78° C | 29% | 1012.9 hPa | 0 mm | - | 65 W/m² | - |
| 1777557723 | 17.78° C | 29% | 1013 hPa | 0 mm | - | 60 W/m² | - |
| 1777557419 | 17.22° C | 28% | 1013 hPa | 0 mm | - | 55 W/m² | - |
| 1777557116 | 17.22° C | 29% | 1012.7 hPa | 0 mm | - | 52 W/m² | - |
| 1777556811 | 17.22° C | 29% | 1012.8 hPa | 0 mm | - | 43 W/m² | - |
* Rain latest hour (hover to see other rain measurements)
** Current wind speed in m/s (hover to see current wind gust speed)